Weather History for Flint, MI

Change the Weather History Date:

Tuesday, August 13, 2013

  Actual Average Record
Temperature  
Mean Temperature 62 °F 69 °F  
Max Temperature 70 °F 80 °F 96 °F (1947)
Min Temperature 53 °F 59 °F 40 °F (1939)
Degree Days  
Heating Degree Days 3 1  
Month to date heating degree days 5 12  
Since 1 June heating degree days 55 93  
Since 1 July heating degree days 14 27  
Cooling Degree Days 0 5  
Month to date cooling degree days 46 70  
Year to date cooling degree days 548 401  
Since 1 June cooling degree days 469 369  
Growing Degree Days 12 (Base 50)    
Moisture  
Dew Point 50 °F    
Average Humidity 68    
Maximum Humidity 93    
Minimum Humidity 42    
Precipitation  
Precipitation 0.00 in 0.11 in 0.75 in (1963)
Month to date precipitation 1.33 1.37  
Year to date precipitation 24.34 18.75  
Snow  
Snow 0.00 in 0.00 in 0.00 in ()
Month to date snowfall 0.0 0.0  
Since 1 June snowfall 0.0 0.0  
Since 1 July snowfall 0.0 0.0  
Snow Depth 0.00 in    
Sea Level Pressure  
Sea Level Pressure 29.96 in    
Wind  
Wind Speed 11 mph (NNW)    
Max Wind Speed 21 mph    
Max Gust Speed 28 mph    
Visibility 9 miles    
Events      
T = Trace of Precipitation, MM = Missing Value Source: NWS Daily Summary

Daily Weather History Graph

Daily Weather History Graph

Search for Another Location

Airport:

Trip Planner

Search our weather history database for the weather conditions in past years. The results will help you decide how hot, cold, wet, or windy it might be!

Date:

Astronomy

Aug. 13, 2013 Rise Set
Actual Time 6:39 AM EDT 8:39 PM EDT
Civil Twilight 6:08 AM EDT 9:10 PM EDT
Nautical Twilight 5:30 AM EDT 9:48 PM EDT
Astronomical Twilight 4:48 AM EDT 10:29 PM EDT
Moon 1:44 PM EDT (8/13) No Moon Set
Length of Visible Light 15h 02m
Length of Day
14h 00m
Waxing Crescent, 41% of the Moon is Illuminated
Aug 13
Waxing Crescent
Aug 14
First Quarter
Aug 20
Full
Aug 28
Last Quarter
Sep 5
New

Hourly Weather History & Observations

Time (EDT) Temp. Dew Point Humidity Pressure Visibility Wind Dir Wind Speed Gust Speed Precip Events Conditions
12:00 AM 66.2 °F 64.4 °F 94% 29.87 in 0.8 mi West 4.6 mph - N/A   Mist
12:05 AM 66.2 °F 64.4 °F 94% 29.87 in 2.0 mi WNW 4.6 mph - N/A   Mostly Cloudy
12:13 AM 64.4 °F 62.6 °F 94% 29.87 in 4.0 mi West 5.8 mph - N/A   Mostly Cloudy
12:53 AM 64.9 °F 62.1 °F 90% 29.86 in 10.0 mi NW 6.9 mph - N/A   Clear
1:53 AM 64.0 °F 61.0 °F 90% 29.86 in 10.0 mi NW 5.8 mph - N/A   Clear
2:53 AM 63.0 °F 57.9 °F 84% 29.87 in 10.0 mi NW 11.5 mph - N/A   Clear
3:53 AM 62.1 °F 55.9 °F 80% 29.87 in 10.0 mi NNW 11.5 mph - N/A   Scattered Clouds
4:26 AM 60.8 °F 55.4 °F 82% 29.88 in 10.0 mi NNW 9.2 mph - N/A   Mostly Cloudy
4:53 AM 61.0 °F 55.0 °F 81% 29.88 in 10.0 mi North 9.2 mph - N/A   Mostly Cloudy
5:53 AM 57.9 °F 51.1 °F 78% 29.91 in 10.0 mi North 9.2 mph - N/A   Mostly Cloudy
6:02 AM 57.2 °F 51.8 °F 82% 29.92 in 10.0 mi NNW 9.2 mph - N/A   Scattered Clouds
6:53 AM 55.9 °F 50.0 °F 80% 29.94 in 10.0 mi NNW 9.2 mph 18.4 mph N/A   Partly Cloudy
7:10 AM 55.4 °F 50.0 °F 82% 29.95 in 10.0 mi NNW 10.4 mph 19.6 mph N/A   Mostly Cloudy
7:53 AM 55.9 °F 48.9 °F 77% 29.95 in 10.0 mi NNW 11.5 mph - N/A   Overcast
8:53 AM 57.9 °F 48.0 °F 70% 29.97 in 10.0 mi NNW 11.5 mph - N/A   Mostly Cloudy
9:40 AM 60.8 °F 48.2 °F 63% 29.98 in 10.0 mi NW 15.0 mph 19.6 mph N/A   Scattered Clouds
9:53 AM 61.0 °F 48.9 °F 64% 29.98 in 10.0 mi NW 10.4 mph - N/A   Partly Cloudy
10:12 AM 60.8 °F 48.2 °F 63% 30.00 in 10.0 mi NNW 11.5 mph - N/A   Mostly Cloudy
10:53 AM 62.1 °F 48.0 °F 60% 29.99 in 10.0 mi NNW 15.0 mph - N/A   Mostly Cloudy
11:14 AM 62.6 °F 48.2 °F 59% 30.00 in 10.0 mi NNW 12.7 mph 20.7 mph N/A   Mostly Cloudy
11:53 AM 64.0 °F 46.9 °F 54% 30.01 in 10.0 mi North 12.7 mph - N/A   Scattered Clouds
12:53 PM 64.9 °F 45.0 °F 48% 30.01 in 10.0 mi North 16.1 mph 21.9 mph N/A   Mostly Cloudy
1:53 PM 66.0 °F 46.0 °F 48% 30.01 in 10.0 mi NNW 12.7 mph 20.7 mph N/A   Mostly Cloudy
2:53 PM 64.9 °F 44.1 °F 47% 30.01 in 10.0 mi North 13.8 mph 20.7 mph N/A   Overcast
3:53 PM 69.1 °F 46.0 °F 44% 30.00 in 10.0 mi WNW 12.7 mph 23.0 mph N/A   Scattered Clouds
4:53 PM 68.0 °F 45.0 °F 43% 30.00 in 10.0 mi NNW 11.5 mph 16.1 mph N/A   Mostly Cloudy
5:53 PM 66.0 °F 43.0 °F 43% 30.00 in 10.0 mi NNW 12.7 mph 23.0 mph N/A   Overcast
6:53 PM 68.0 °F 44.1 °F 42% 30.01 in 10.0 mi NNW 11.5 mph 20.7 mph N/A   Partly Cloudy
7:53 PM 64.0 °F 42.1 °F 45% 30.03 in 10.0 mi North 13.8 mph - N/A   Clear
8:53 PM 61.0 °F 44.1 °F 54% 30.04 in 10.0 mi NNW 8.1 mph - N/A   Partly Cloudy
9:53 PM 57.0 °F 44.1 °F 62% 30.06 in 10.0 mi NNW 6.9 mph - N/A   Clear
10:53 PM 53.1 °F 45.0 °F 74% 30.06 in 10.0 mi WNW 5.8 mph - N/A   Clear
11:53 PM 55.0 °F 44.1 °F 67% 30.08 in 10.0 mi NW 6.9 mph - N/A   Clear